[[{"header":{"parameterUnit":"m.s-1","parameterCategory":1,"la1":30.2991,"la2":30.254,"lo1":-89.0895,"lo2":-89.0444,"dy":0.0017,"dx":0.0017,"nx":28,"ny":28,"refTime":"2024-12-03T09:00:00:Z","depth":0,"parameterNumber":2,"parameterNumberName":"U-component_of_WINDS"},"data":[0,0,0,0,0,0,0,0,0,0,0,0,0,0,0,0,0,0,0,0,0,0,0,0,0,0,0,0,0,0,0,0,0,0,0,0,0,0,0,0,0,0,0,0,0,0,0,0,0,0,0,0,0,0,0,0,0,0,-3.5017,-3.5018,0,-3.5069,-3.5069,-3.507,-3.4978,-3.4975,-3.4972,-3.4969,-3.5021,-3.5025,-3.5029,0,0,0,0,0,0,0,0,0,0,0,0,0,-3.4836,-3.484,-3.5017,-3.5018,-3.5018,-3.5069,-3.5069,-3.507,-3.4978,-3.4975,-3.4971,-3.4967,-3.5019,-3.5024,-3.503,0,0,0,0,0,0,0,0,0,0,0,0,0,-3.4904,-3.4841,-3.5017,-3.4979,-3.4976,-3.5069,-3.5069,-3.507,-3.4979,-3.4975,-3.497,-3.4966,-3.5018,-3.5024,-3.503,-3.5162,0,0,-3.505,-3.5053,0,0,0,0,0,0,0,0,-3.49,-3.4911,-3.4984,-3.4981,-3.4978,-3.5012,-3.5025,-3.5101,-3.498,-3.4978,-3.4969,-3.4963,-3.5022,-3.5027,-3.5047,-3.5165,-3.5167,-3.505,-3.5054,-3.5057,-3.5059,0,0,0,0,0,0,0,-3.4896,-3.4908,-3.5037,-3.4985,-3.4982,-3.4958,-3.4963,-3.5039,-3.5025,-3.4978,-3.4971,-3.4979,-3.5019,-3.5041,-3.5048,-3.5168,-3.505,-3.5056,-3.506,-3.5062,-3.5394,-3.5399,0,0,0,0,0,0,-3.4896,-3.4905,-3.5036,-3.5039,-3.4927,-3.4965,-3.497,-3.5006,-3.5024,-3.5022,-3.4983,-3.4974,-3.5033,-3.504,-3.5049,-3.5203,-3.5057,-3.5063,-3.5067,-3.5389,-3.5395,-3.54,0,0,0,0,0,0,-3.4892,-3.4909,-3.5034,-3.497,-3.4984,-3.4973,-3.5014,-3.5009,-3.5031,-3.5028,-3.5025,-3.5008,-3.5029,-3.504,-3.5134,-3.5204,-3.5066,-3.5072,-3.5383,-3.5391,-3.5398,-3.5514,0,0,0,0,0,0,-3.4888,-3.4908,-3.4959,-3.4972,-3.4988,-3.5119,-3.5018,-3.5014,-3.5043,-3.5032,-3.505,-3.5049,-3.5027,-3.5125,-3.5141,-3.521,-3.5077,-3.5377,-3.5386,-3.5395,-3.5504,-3.5524,-3.5542,0,0,0,0,0,-3.4881,-3.499,-3.4962,-3.4978,-3.5051,-3.5123,-3.5132,-3.5105,-3.5049,-3.5099,-3.5096,-3.5048,-3.5194,-3.5136,-3.5152,-3.5225,-3.5372,-3.5384,-3.5395,-3.5495,-3.552,-3.5541,0,0,0,0,0,0,-3.4985,-3.4991,-3.496,-3.5076,-3.51,-3.5108,-3.517,-3.5133,-3.5173,-3.5161,-3.5125,-3.513,-3.5231,-3.5237,-3.5172,-3.5352,-3.5274,-3.5289,-3.5344,-3.5368,-3.5387,-3.5383,-3.5082,0,0,0,0,0,-3.5021,-3.508,-3.5081,-3.5183,-3.5197,-3.5182,-3.5212,-3.5189,-3.5212,-3.5222,-3.5226,-3.525,-3.53,-3.5335,-3.5382,-3.5504,-3.5506,-3.5562,-3.5581,-3.5597,-3.561,-3.5673,-3.5697,-3.5437,-3.5437,-3.5437,0,0,-3.5097,-3.5107,-3.5146,-3.5204,-3.522,-3.528,-3.5191,-3.5259,-3.5303,-3.5232,-3.532,-3.5325,-3.5349,-3.5457,-3.5505,-3.5466,-3.5682,-3.5611,-3.5624,-3.5628,-3.5687,-3.5712,-3.5734,-3.5445,-3.5443,-3.5442,0,0,-3.5265,-3.5279,-3.5365,-3.5382,-3.5407,-3.5396,-3.5417,-3.5431,-3.543,-3.5519,-3.5466,-3.5518,-3.5607,-3.5625,-3.5646,-3.582,-3.5777,-3.5837,-3.5936,-3.5998,-3.6018,-3.6036,-3.6096,-3.6119,-3.585,-3.585,-3.585,0,-3.5355,-3.5445,-3.5413,-3.5485,-3.5511,-3.5449,-3.5534,-3.5553,-3.5592,-3.5611,-3.5566,-3.5675,-3.5688,-3.5798,-3.5841,-3.5861,-3.5882,-3.5834,-3.6018,-3.6036,-3.6052,-3.6109,-3.6132,-3.5857,-3.5856,-3.5855,-3.5855,0,-3.5553,-3.5616,-3.5682,-3.5721,-3.5755,-3.5833,-3.5813,-3.585,-3.5824,-3.5817,-3.5907,-3.5919,-3.5966,-3.5991,-3.5966,-3.6099,-3.6073,-3.6024,-3.5944,-3.6084,-3.6137,-3.6159,-3.5867,-3.5864,-3.5862,-3.5861,0,0,-3.5788,-3.5808,-3.5833,-3.5848,-3.5871,-3.5918,-3.5993,-3.6039,-3.6071,-3.61,-3.6161,-3.6237,-3.6191,-3.6215,-3.6192,-3.6247,-3.6381,-3.619,-3.619,-3.6224,-3.6524,-3.656,-3.6586,-3.6352,-3.6357,-3.636,-3.6522,0,-3.5953,-3.6082,-3.6056,-3.6181,-3.6238,-3.6179,-3.6244,-3.6264,-3.626,-3.6306,-3.6301,-3.6355,-3.6292,-3.6305,-3.6357,-3.6354,-3.644,-3.6342,-3.6407,-3.6409,-3.6401,-3.6613,-3.6652,-3.6804,-3.6542,-3.6546,-3.6548,0,-3.6163,-3.62,-3.6331,-3.6343,-3.6365,-3.6424,-3.6463,-3.6509,-3.653,-3.6523,-3.655,-3.6515,-3.6587,-3.6508,-3.6606,-3.654,-3.6565,-3.6567,-3.6572,-3.6576,-3.6486,-3.6621,-3.6852,-3.6874,-3.6581,-3.6578,-3.6576,0,-3.6319,-3.6401,-3.6489,-3.6505,-3.6521,-3.6564,-3.6572,-3.6589,-3.6618,-3.6652,-3.667,-3.6712,-3.6735,-3.6768,-3.6745,-3.669,-3.6847,-3.6766,-3.6842,-3.6842,-3.6876,-3.6874,-3.7112,-3.6896,-3.6895,-3.6895,-3.6895,0,-3.6505,-3.6587,-3.6559,-3.6613,-3.6703,-3.6671,-3.6761,-3.6763,-3.6778,-3.683,-3.6783,-3.6833,-3.6801,-3.6848,-3.6831,-3.6914,-3.6925,-3.692,-3.6914,-3.6923,-3.6924,-3.6938,-3.6926,-3.6901,-3.69,-3.6899,-3.6897,0,-3.6693,-3.6678,-3.677,-3.6778,-3.6782,-3.6847,-3.6853,-3.6903,-3.6895,-3.6962,-3.6976,-3.6963,-3.7016,-3.6997,-3.7054,-3.7042,-3.7148,-3.7129,-3.7141,-3.7135,-3.7211,-3.7204,-3.7466,-3.7498,-3.7263,-3.7265,-3.7267,0,-3.6812,-3.6874,-3.6888,-3.692,-3.6932,-3.6985,-3.7013,-3.6984,-3.7016,-3.7044,-3.709,-3.7139,-3.7177,-3.7264,-3.7259,-3.7302,-3.7283,-3.7372,-3.7289,-3.7296,-3.7282,-3.7277,-3.7282,-3.7388,-3.7391,-3.7393,-3.7395,0,-3.7025,-3.7014,-3.7057,-3.7098,-3.7134,-3.7165,-3.7191,-3.722,-3.7192,-3.723,-3.7284,-3.7313,-3.7371,-3.7419,-3.7457,-3.7465,-3.7425,-3.7421,-3.744,-3.7449,-3.7453,-3.745,-3.7184,-3.7415,-3.7413,-3.7411,-3.741,-3.7409,-3.7181,-3.7232,-3.7249,-3.7299,-3.7316,-3.7341,-3.7388,-3.7385,-3.743,-3.7474,-3.7454,-3.7516,-3.7534,-3.7581,-3.7594,-3.7641,-3.7606,-3.7635,-3.7642,-3.7649,-3.7658,-3.7447,-3.7648,-3.7647,-3.7647,-3.7646,-3.7646,0,-3.7388,-3.7396,-3.7443,-3.7481,-3.752,-3.7479,-3.7506,-3.7541,-3.7596,-3.7616,-3.7653,-3.7714,-3.7761,-3.7759,-3.7802,-3.784,-3.7822,-3.7852,-3.7848,-3.785,-3.7687,-3.7665,-3.7865,-3.7865,-3.7865,-3.7865,-3.7865,-3.7865,-3.7501,-3.7585,-3.7576,-3.7667,-3.7674,-3.7734,-3.7753,-3.7775,-3.7791,-3.7861,-3.7899,-3.7898,-3.7909,-3.7952,-3.7992,-3.7991,-3.8008,-3.8044,-3.8035,-3.7883,-3.7861,-3.7841,-3.782,-3.8048,-3.8049,-3.8193,-3.8194,-3.8195]},{"header":{"parameterUnit":"m.s-1","parameterCategory":1,"la1":30.2991,"la2":30.254,"lo1":-89.0895,"lo2":-89.0444,"dy":0.0017,"dx":0.0017,"nx":28,"ny":28,"refTime":"2024-12-03T09:00:00:Z","depth":0,"parameterNumber":3,"parameterNumberName":"V-component_of_WINDS"},"data":[0,0,0,0,0,0,0,0,0,0,0,0,0,0,0,0,0,0,0,0,0,0,0,0,0,0,0,0,0,0,0,0,0,0,0,0,0,0,0,0,0,0,0,0,0,0,0,0,0,0,0,0,0,0,0,0,0,0,-3.6232,-3.6233,0,-3.63,-3.6301,-3.6302,-3.626,-3.6258,-3.6256,-3.6254,-3.6321,-3.6325,-3.6328,0,0,0,0,0,0,0,0,0,0,0,0,0,-3.606,-3.6063,-3.6232,-3.6233,-3.6234,-3.63,-3.6301,-3.6302,-3.626,-3.6258,-3.6255,-3.6253,-3.632,-3.6324,-3.6328,0,0,0,0,0,0,0,0,0,0,0,0,0,-3.6132,-3.6064,-3.6232,-3.6221,-3.622,-3.63,-3.6301,-3.6302,-3.6261,-3.6258,-3.6255,-3.6252,-3.6318,-3.6324,-3.6329,-3.6422,0,0,-3.6346,-3.6348,0,0,0,0,0,0,0,0,-3.6128,-3.6138,-3.6221,-3.6222,-3.6221,-3.6269,-3.6265,-3.6343,-3.6262,-3.6245,-3.6254,-3.6251,-3.6306,-3.6312,-3.6331,-3.6425,-3.6428,-3.6346,-3.6349,-3.6352,-3.6353,0,0,0,0,0,0,0,-3.6123,-3.6135,-3.6259,-3.6223,-3.6223,-3.6211,-3.6218,-3.628,-3.6291,-3.6247,-3.6244,-3.6253,-3.6305,-3.6326,-3.6333,-3.6429,-3.6346,-3.6351,-3.6354,-3.6356,-3.6601,-3.6604,0,0,0,0,0,0,-3.6119,-3.6131,-3.6257,-3.6261,-3.6167,-3.6216,-3.6224,-3.6256,-3.6291,-3.6293,-3.6255,-3.625,-3.6318,-3.6326,-3.6335,-3.6445,-3.6352,-3.6357,-3.636,-3.6597,-3.6601,-3.6605,0,0,0,0,0,0,-3.6116,-3.6131,-3.6254,-3.6195,-3.621,-3.6223,-3.6259,-3.6259,-3.628,-3.6297,-3.6298,-3.6275,-3.6316,-3.6327,-3.6401,-3.6446,-3.6359,-3.6364,-3.6594,-3.6599,-3.6603,-3.6666,0,0,0,0,0,0,-3.6111,-3.613,-3.6167,-3.6197,-3.6213,-3.632,-3.6262,-3.6263,-3.629,-3.6285,-3.6316,-3.6318,-3.6315,-3.6393,-3.6406,-3.6452,-3.6369,-3.6589,-3.6596,-3.6601,-3.666,-3.6672,-3.6683,0,0,0,0,0,-3.6105,-3.6182,-3.6169,-3.6184,-3.626,-3.6323,-3.6332,-3.6328,-3.6294,-3.633,-3.6341,-3.6317,-3.6439,-3.6401,-3.6415,-3.6464,-3.6587,-3.6594,-3.6601,-3.6655,-3.667,-3.6683,0,0,0,0,0,0,-3.6156,-3.6185,-3.6172,-3.626,-3.629,-3.6316,-3.6361,-3.6345,-3.6383,-3.6376,-3.6368,-3.6375,-3.6452,-3.6465,-3.6421,-3.6554,-3.6507,-3.6518,-3.6543,-3.6558,-3.6569,-3.6564,-3.6373,0,0,0,0,0,-3.6178,-3.6228,-3.625,-3.6326,-3.6342,-3.6349,-3.6376,-3.637,-3.64,-3.6412,-3.6427,-3.6456,-3.65,-3.653,-3.6572,-3.6662,-3.6666,-3.6702,-3.6714,-3.6723,-3.6732,-3.6778,-3.6794,-3.6628,-3.6628,-3.6628,0,0,-3.6223,-3.6245,-3.6277,-3.6337,-3.6359,-3.6409,-3.636,-3.6416,-3.6452,-3.642,-3.649,-3.6502,-3.6533,-3.6615,-3.6651,-3.6628,-3.6779,-3.6732,-3.674,-3.6744,-3.6787,-3.6803,-3.6817,-3.6633,-3.6633,-3.6632,0,0,-3.6331,-3.6354,-3.6419,-3.6441,-3.6475,-3.648,-3.6495,-3.6524,-3.6531,-3.6601,-3.6577,-3.662,-3.6698,-3.672,-3.6742,-3.6856,-3.6835,-3.687,-3.693,-3.6975,-3.6988,-3.7,-3.7039,-3.7053,-3.6879,-3.6879,-3.6879,0,-3.6383,-3.6459,-3.6454,-3.6511,-3.6537,-3.6511,-3.6575,-3.6597,-3.6643,-3.666,-3.6634,-3.6729,-3.6749,-3.6834,-3.6862,-3.6881,-3.6896,-3.6866,-3.6987,-3.6999,-3.7009,-3.7046,-3.7061,-3.6883,-3.6882,-3.6882,-3.6882,0,-3.652,-3.6573,-3.6621,-3.6666,-3.6697,-3.6758,-3.676,-3.6792,-3.6783,-3.679,-3.686,-3.6882,-3.6927,-3.6947,-3.6939,-3.7031,-3.7015,-3.6988,-3.694,-3.7029,-3.7064,-3.7078,-3.6888,-3.6887,-3.6886,-3.6885,0,0,-3.6662,-3.6703,-3.6721,-3.674,-3.6775,-3.6815,-3.6873,-3.6918,-3.6945,-3.6976,-3.7024,-3.7089,-3.7064,-3.7089,-3.7082,-3.7122,-3.7209,-3.709,-3.709,-3.711,-3.7309,-3.7329,-3.7345,-3.7196,-3.7198,-3.72,-3.7306,0,-3.6771,-3.6874,-3.687,-3.6966,-3.7013,-3.6988,-3.7039,-3.7064,-3.7071,-3.7112,-3.7119,-3.7165,-3.7129,-3.7143,-3.7182,-3.719,-3.7249,-3.7183,-3.7238,-3.724,-3.723,-3.7364,-3.7385,-3.7484,-3.732,-3.7322,-3.7324,0,-3.6912,-3.6949,-3.7049,-3.7075,-3.7095,-3.7141,-3.718,-3.722,-3.7247,-3.7249,-3.7276,-3.7263,-3.732,-3.7271,-3.7349,-3.7304,-3.7326,-3.7333,-3.7337,-3.7341,-3.7287,-3.737,-3.7515,-3.753,-3.7346,-3.7344,-3.7342,0,-3.7004,-3.7079,-3.7148,-3.7165,-3.7198,-3.723,-3.7245,-3.727,-3.7296,-3.733,-3.7347,-3.7387,-3.7409,-3.744,-3.7437,-3.7402,-3.7515,-3.7466,-3.7517,-3.7517,-3.7541,-3.7539,-3.7691,-3.7557,-3.7557,-3.7557,-3.7557,0,-3.7125,-3.7187,-3.7189,-3.7232,-3.73,-3.7294,-3.7361,-3.7372,-3.7394,-3.7437,-3.7417,-3.7458,-3.7452,-3.7492,-3.749,-3.7553,-3.7563,-3.7565,-3.7564,-3.7567,-3.7566,-3.758,-3.7573,-3.7561,-3.756,-3.7559,-3.7558,0,-3.7239,-3.7243,-3.7317,-3.7341,-3.7349,-3.7398,-3.7418,-3.7457,-3.7462,-3.7516,-3.7528,-3.7536,-3.7582,-3.7582,-3.7635,-3.7633,-3.771,-3.7701,-3.7701,-3.7699,-3.7749,-3.7743,-3.7913,-3.7934,-3.7789,-3.779,-3.7791,0,-3.7316,-3.7363,-3.7392,-3.742,-3.7437,-3.7482,-3.7508,-3.7504,-3.7532,-3.7567,-3.7601,-3.7645,-3.768,-3.7754,-3.7764,-3.7803,-3.7794,-3.7851,-3.78,-3.7801,-3.7793,-3.779,-3.7794,-3.7861,-3.7862,-3.7864,-3.7865,0,-3.745,-3.745,-3.749,-3.7531,-3.7564,-3.7595,-3.7624,-3.7648,-3.7646,-3.7678,-3.7725,-3.7753,-3.7806,-3.7849,-3.7887,-3.79,-3.7882,-3.7881,-3.7894,-3.7897,-3.7894,-3.7895,-3.7727,-3.7877,-3.7875,-3.7875,-3.7874,-3.7873,-3.7547,-3.7587,-3.7614,-3.7658,-3.768,-3.7707,-3.7745,-3.7754,-3.7794,-3.7837,-3.7832,-3.7883,-3.7908,-3.7957,-3.7973,-3.8013,-3.7993,-3.8013,-3.8017,-3.8022,-3.8027,-3.7889,-3.802,-3.8019,-3.8019,-3.8019,-3.8018,0,-3.768,-3.7695,-3.7737,-3.7778,-3.7813,-3.7793,-3.7824,-3.7854,-3.79,-3.7925,-3.7959,-3.8012,-3.8054,-3.8066,-3.8106,-3.8135,-3.8127,-3.8145,-3.8142,-3.8145,-3.8043,-3.8027,-3.8151,-3.815,-3.815,-3.815,-3.815,-3.815,-3.7753,-3.7819,-3.7821,-3.7896,-3.7911,-3.7962,-3.7981,-3.8006,-3.8025,-3.8085,-3.812,-3.8128,-3.8147,-3.8188,-3.8225,-3.8227,-3.8242,-3.8263,-3.8262,-3.8166,-3.8153,-3.814,-3.8125,-3.8267,-3.8267,-3.836,-3.8361,-3.8362]}]]